Home > Weather > Gloucester > Past weeks

Flag for USA Weather for the Past 2 Weeks in Gloucester, Massachusetts, USA

Now
52 °F

Sunny.


Feels Like: 49 °F
Forecast: 42 / 52 °F
Wind: 9 mph from West

Location: Beverly Municipal Airport

Current Time: Apr 30, 2016 at 10:16:33 AM

Latest Report: Apr 30, 2016 at 8:53 AM


Visibility: 10 mi

Pressure: 30.21 "Hg

Humidity: 43%

Dew Point: 30 °F

Location of GloucesterLocation

Historic Weather in Gloucester — Graph

°F

Gloucester Temperature Yesterday

Maximum temperature yesterday: 49 °F (at 10:53 AM)
Minimum temperature yesterday: 39 °F (at 4:53 AM)
Average temperature yesterday: 45 °F

High & Low Weather Summary for the Past Weeks

 TemperatureHumidityPressure
High74 °F (Apr 22, 2:53 PM)93% (Apr 22, 10:53 PM)30.49 "Hg (Apr 22, 10:53 PM)
Low31 °F (Apr 27, 2:53 AM)16% (Apr 21, 11:53 AM)29.73 "Hg (Apr 23, 4:53 AM)
Average49 °F53%30.06 "Hg
* Reported Apr 15 8:53 AM — Apr 30 8:53 AM, Gloucester, Weather by CustomWeather, © 2016

Note: Actual official high and low records may vary slightly from our data, if they occured in-between our weather recording intervals... More about our weather records

Advertising

Gloucester Weather History for the Previous 24 Hours

Scroll right to see more
 ConditionsComfort  
Time TempWeatherWind HumidityBarometerVisibility
8:53 AM
Sat, Apr 30
52 °FSunny.9 mph43%30.21 "Hg10 mi
7:53 AM48 °FSunny.9 mph61%30.21 "Hg10 mi
6:53 AM43 °FSunny.No wind76%30.19 "Hg10 mi
5:53 AM39 °FClear.3 mph76%30.15 "Hg10 mi
4:53 AM40 °FClear.No wind73%30.16 "Hg10 mi
3:53 AM41 °FClear.5 mph67%30.16 "Hg10 mi
2:53 AM41 °FClear.No wind67%30.16 "Hg10 mi
1:53 AM42 °FClear.3 mph62%30.16 "Hg10 mi
12:53 AM42 °FClear.No wind62%30.15 "Hg10 mi
11:53 PM
Fri, Apr 29
43 °FClear.3 mph60%30.14 "Hg10 mi
10:53 PM44 °FClear.6 mph63%30.14 "Hg10 mi
9:53 PM44 °FClear.7 mph63%30.14 "Hg10 mi
8:53 PM44 °FClear.9 mph60%30.13 "Hg10 mi
7:53 PM44 °FSunny.8 mph65%30.11 "Hg10 mi
6:53 PM45 °FSunny.13 mph65%30.11 "Hg10 mi
5:53 PM46 °FSunny.14 mph63%30.11 "Hg10 mi
4:53 PM48 °FSunny.13 mph59%30.12 "Hg10 mi
3:53 PM48 °FSunny.14 mph59%30.11 "Hg10 mi
2:53 PM49 °FSunny.13 mph52%30.12 "Hg10 mi
1:53 PM49 °FSunny.15 mph55%30.15 "Hg10 mi
12:53 PM49 °FPassing clouds.14 mph52%30.16 "Hg10 mi
11:53 AM49 °FSunny.13 mph55%30.18 "Hg10 mi
10:53 AM49 °FBroken clouds.12 mph52%30.19 "Hg10 mi
Weather by CustomWeather, © 2016

See weather overviewHow to use our weather pages